Regional Weather Roundup
Issued by NWS

Home | Current Version | Previous Version | Graphics & Text | Print | Product List | Glossary On
Versions: 1 2 3 4 5 6 7 8 9 10 11 12 13 14 15 16 17 18 19 20 21 22 23 24 25 26 27 28 29 30 31 32 33 34 35 36 37 38 39 40 41 42 43 44 45 46 47 48 49 50
000
ASUS43 KLMK 222310
RWRKY
KENTUCKY REGIONAL WEATHER ROUNDUP
NATIONAL WEATHER SERVICE LOUISVILLE KY
700 PM EDT FRI MAY 22 2015

NOTE "FAIR" INDICATES FEW OR NO CLOUDS BELOW 12,000 FEET
WITH NO SIGNIFICANT WEATHER AND/OR OBSTRUCTIONS TO VISIBILITY.

KYZ001>023-026-027-061>063-070>075-230000-
WESTERN AND SOUTH CENTRAL KENTUCKY

CITY           SKY/WX    TMP DP  RH WIND       PRES   REMARKS
PADUCAH        MOSUNNY   74  45  35 CALM      30.24F
HENDERSON      CLOUDY    73  52  46 SW7       30.23R
OWENSBORO      MOSUNNY   73  54  51 W5        30.25R
HOPKINSVILLE   SUNNY     72  47  41 NE5       30.25S
BOWLING GREEN  PTSUNNY   73  46  38 E3        30.26R
GLASGOW        MOSUNNY   72  44  36 CALM      30.25S
$$

KYZ024-025-028>034-038-045-046-053-230000-
NORTH CENTRAL KENTUCKY

CITY           SKY/WX    TMP DP  RH WIND       PRES   REMARKS
LOUISVILLE/SDF PTSUNNY   73  47  39 NW6       30.23S
LOUISVILLE/LOU PTSUNNY   74  44  34 W6        30.23F
FORT KNOX      PTSUNNY   70  51  50 W6        30.24R
$$

KYZ035>037-039>044-047>052-055>060-089>105-230000-
NORTHEAST KENTUCKY

CITY           SKY/WX    TMP DP  RH WIND       PRES   REMARKS
LEXINGTON      MOSUNNY   71  48  43 SW5       30.25S
COVINGTON      PTSUNNY   71  46  40 W9G20     30.22R
FRANKFORT      MOSUNNY   71  44  37 W3        30.23S
$$

KYZ054-064>069-076>088-106>120-230000-
SOUTHEAST KENTUCKY

CITY           SKY/WX    TMP DP  RH WIND       PRES   REMARKS
JACKSON        SUNNY     66  44  45 CALM      30.27S
LONDON         SUNNY     72  38  29 VRB3      30.27R
SOMERSET       PTSUNNY   68  37  32 CALM      30.28R
MIDDLESBORO    SUNNY     70  44  39 N3        30.27R
MONTICELLO     CLEAR     73  43  34 CALM      30.29S
$$




USA.gov is the U.S. government's official web portal to all federal, state and local government web resources and services.